Voltar ao catálogo

VIGORIDE 5

AtivoCiênciaSSO
NORAD 55056·PAYLOAD·🇺🇸 United States

Lançado Jan 3, 2023 de Cape Canaveral Space Force Station

Loading…

Próximas Passagens (próximas 24 horas)

TLE

AtualizadoSource: Space-Track

Época: Sep 14, 2026, 11:17 UTC

1 55056U 23001AZ  26257.47043102  .00071080  00000-0  57619-3 0  9997
2 55056  97.3136 332.5074 0006394 183.9049 176.2165 15.70525254206633

Acompanhe VIGORIDE 5 em tempo real com AllMySat

Download on the App Store